Location: Unspecified
(0.0000°N, 0.0000°E)
Time: 18:18:39
(UTC+00:00)

Vanguard 3 - Pass Details

Date: 06 February 2023
Orbit: 509 x 3249 km, 33.3° (Epoch: 20 March)

Event Time Altitude Azimuth Distance (km) Brightness Sun altitude
Rises 15:26:11 0° 269° (W) 2,692 10.6 40.1°
Reaches altitude 10° 15:28:42 10° 290° (WNW) 1,945 9.9 39.5°
Maximum altitude 15:31:48 19° 336° (NNW) 1,686 9.0 38.8°
Drops below altitude 10° 15:35:48 10° 20° (NNE) 2,606 9.5 37.9°
Sets 15:39:58 0° 36° (NE) 4,043 10.3 36.9°
